Meadows Field
KBFL : now visible

Airfield :











YOU CAN JOIN US ON...

 
LOGIN :

Register | Disclaimer

   EN    FR    IT 

 









Legend :    VFR   Marginal VFR   IFR   Intensive IFR   Very Intensive IFR
Visi :
Ceiling :
>= 8 km
>= 3000ft
5 to 8 km
1000 to 3000 ft
1500m to 5 km
500 to 1000 ft
800 to 1500m
200 to 500 ft
< 800m
< 200 ft
Symbols :   Thunderstorms  Fog  Heavy snow  Heavy precipitations  Wind > 20 kt






- Airport Elevation : 510 ft
- IATA code : BFL


KBFL - Meadows Field

CURRENT METAR :
  • 170254Z 03009KT 8SM CLR 25/M02 A2991 RMK AO2 SLP124 T02501017 53002

EXPIRED METARs :
  • 170154Z 35008KT 8SM CLR 24/M03 A2990 RMK AO2 SLP120 T02391028
  • 170054Z 02005KT 7SM CLR 29/M03 A2989 RMK AO2 SLP116 T02891028

TAF KBFL
Valid from the 17 at 00:00 until the 18 at 00:00 UTC


162320Z 1700/1724 05007KT P6SM SKC
FM172100 29014G22KT P6SM FEW250
KZLA FIR / North America



MET'MAP, your aeronautical weather chart ! - Copyright ORBIFLY December 2007 - Disclaimer

ORBIFLY MET'MAP TEAM :

Programming & Development : Alexandra Zaïnal
Concept & original design : Baudouin d'Aumeries
Assistance for programming : Marc-Olivier Méhu
Technical & hardware support : Manuel Goepfert

Contact : metmap@orbifly.com




SOURCES & CREDITS :

   NOAA       Earth
Advisory